Regional Weather Roundup
Issued by NWS

Home | Current Version | Previous Version | Graphics & Text | Print | Product List | Glossary On
Versions: 1 2 3 4 5 6 7 8 9 10 11 12 13 14 15 16 17 18 19 20 21 22 23 24 25 26 27 28 29 30 31 32 33 34 35 36 37 38 39 40 41 42 43 44 45 46 47 48 49 50
000
ASUS43 KLOT 272021
RWRIL

ILLINOIS REGIONAL WEATHER ROUNDUP
NATIONAL WEATHER SERVICE CHICAGO/ROMEOVILLE IL
300 PM CDT FRI MAR 27 2015

NOTE: "FAIR" INDICATES FEW OR NO CLOUDS BELOW 12,000 FEET WITH NO
SIGNIFICANT WEATHER AND/OR OBSTRUCTIONS TO VISIBILITY.

* THESE STATIONS ARE NOT UNDER NWS QUALITY CONTROL. THEY ALSO MAY NOT
  REPORT WEATHER SUCH AS PRECIPITATION OR FOG.

ILZ001-002-007-009-015-016-024-272100-
NORTHWEST ILLINOIS

CITY           SKY/WX    TMP DP  RH WIND       PRES   REMARKS
MOLINE         SUNNY     36   8  31 NE8G17    30.18F WCI  30
STERLING*      SUNNY     36  12  38 N12G20    30.17F WCI  27
SAVANNA*       SUNNY     36   7  30 N8        30.18F WCI  29
$$

ILZ003-004-008-010-011-017-018-272100-
NORTH CENTRAL ILLINOIS

CITY           SKY/WX    TMP DP  RH WIND       PRES   REMARKS
ROCKFORD       MOSUNNY   34   5  29 N10G24    30.18F WCI  26
FREEPORT*      SUNNY     32  10  40 N10G17    30.19F WCI  23
ROCHELLE*      SUNNY     32  10  39 N14G20    30.16F WCI  22
DE KALB*       SUNNY     30  11  44 N13G22    30.15S WCI  20
PERU*          PTSUNNY   33  11  40 N8G20     30.17F WCI  26
$$

ILZ005-006-012>014-019>023-272100-
NORTHEAST ILLINOIS

CITY           SKY/WX    TMP DP  RH WIND       PRES   REMARKS
CHICAGO-OHARE  MOSUNNY   30  12  47 NE15      30.15F WCI  19
CHICAGO-MIDWAY PTSUNNY   31  11  43 NE17G23   30.16F WCI  19
AURORA         MOSUNNY   34   9  35 NW16G23   30.15F WCI  24
LANSING*       PTSUNNY   28  10  48 N15G22    30.16S WCI  16
JOLIET*        SUNNY     35   9  34 N8G20     30.14F WCI  28
WAUKEGAN       MOSUNNY   27  13  55 N13G23    30.15F WCI  16
DUPAGE AIRPORT SUNNY     33   6  32 N9        30.13F WCI  25
KANKAKEE*      PTSUNNY   32  13  45 N10       30.14F WCI  23
WHEELING       MOSUNNY   28  11  48 NE14G22   30.17F WCI  17
MORRIS*        SUNNY     34  10  37 N10G16    30.14F WCI  26
ROMEOVILLE*    SUNNY     32   9  37 N9G21     30.14F WCI  24
NORTHERLY ISL    N/A     28  11  48 N16         N/A  WCI  16
$$

LMZ740>746-272100-
SOUTHERN LAKE MICHIGAN

STATION/POSITION SKY/WX   TEMP    WIND        PRES    VSBY  WAVE
                          AIR SEA DIR/SP/G                  HT/PER
                          (F)     (DEG/KT/KT) (MB)    (MI)  (FT/S)
HARRISON CRIB              24      10/ 20/ 23   N/A
BURNHAM HARBOR             28      20/ 16/ 20   N/A
CALUMET HARBOR             28     330/ 18/ 25 1020.6S
BURNS HARBOR               25     360/ 18     1021.3F
MICHIGAN CITY              23     340/ 25/ 30   N/A
$$

ILZ025>027-034>036-040-047-049-050-058-095>099-272100-
WEST-CENTRAL ILLINOIS

CITY           SKY/WX    TMP DP  RH WIND       PRES   REMARKS
QUINCY         PTSUNNY   40  16  37 NW9G18    30.16F
GALESBURG*     SUNNY     36  11  35 N14       30.17F WCI  27
MACOMB*        SUNNY     38  11  33 N15       30.19F WCI  29
JACKSONVILLE*  PTSUNNY   41  20  42 NW12G21   30.16S
PITTSFIELD*    PTSUNNY   40  22  48 NW10G18   30.17F
$$

ILZ028>032-037-038-041>044-048-051>054-059>061-272100-
CENTRAL ILLINOIS

CITY           SKY/WX    TMP DP  RH WIND       PRES   REMARKS
PONTIAC        MOSUNNY   34  15  45 N15G23    30.15F WCI  24
BLOOMINGTON    SUNNY     35  14  42 N15G23    30.14F WCI  25
DECATUR        MOSUNNY   37  14  38 NW10      30.14S WCI  30
PEORIA         SUNNY     37   8  30 N10G25    30.17F WCI  30
LACON*         SUNNY     34  10  36 N12G18    30.16F WCI  25
LINCOLN*       MOSUNNY   38  15  38 N12       30.16F WCI  31
SPRINGFIELD    SUNNY     40  14  34 N16G23    30.15F
TAYLORVILLE    PTSUNNY   36  21  55 N15G26    30.14F WCI  26
$$

ILZ033-039-045-046-055>057-062-063-272100-
EAST-CENTRAL ILLINOIS

CITY           SKY/WX    TMP DP  RH WIND       PRES   REMARKS
CHAMPAIGN      CLOUDY    34  18  52 N13       30.12F WCI  25
DANVILLE*      CLOUDY    30  20  64 NW12      30.10S WCI  21
RANTOUL*       PTSUNNY   35  13  40 N12G21    30.12F WCI  27
MATTOON        CLOUDY    38  18  44 NW16      30.10F WCI  29
PARIS*         CLOUDY    33  26  73 N13       30.12S WCI  24
$$

ILZ079-100>102-272100-
SOUTHWEST ILLINOIS

CITY           SKY/WX    TMP DP  RH WIND       PRES   REMARKS
BELLEVILLE     CLOUDY    39  22  52 N10       30.15F WCI  32
CAHOKIA*       CLOUDY    40  22  48 N12G22    30.17F
SPARTA*        CLOUDY    36  23  59 N10G17    30.16F WCI  29
$$

ILZ064>066-069>071-074>076-080>082-084>086-088>090-092>094-272100-
SOUTH-CENTRAL ILLINOIS

CITY           SKY/WX    TMP DP  RH WIND       PRES   REMARKS
CARBONDALE     CLOUDY    38  23  55 NW15G23   30.14F WCI  29
CAIRO*         CLOUDY    39  29  66 N13       30.13S WCI  32
EFFINGHAM*     MOSUNNY   38  16  39 NW16G23   30.14S WCI  30
MARION         CLOUDY    39  27  60 N17       30.14S WCI  30
MT. VERNON     CLOUDY    39  19  45 NW9       30.14S WCI  33
CENTRALIA*     CLOUDY    37  19  48 NW15      30.14S WCI  28
SALEM*         PTSUNNY   39  21  48 NW13G24   30.14S WCI  32
METROPOLIS*    CLOUDY    40  31  68 NW15      30.11S
$$

ILZ067-068-072-073-078-083-087-091-272100-
SOUTHEAST ILLINOIS

CITY           SKY/WX    TMP DP  RH WIND       PRES   REMARKS
LAWRENCEVILLE  CLOUDY    39  21  48 NW17      30.11S WCI  30
FLORA*         PTSUNNY   37  20  49 N14       30.12F WCI  29
FAIRFIELD*     CLOUDY    38  20  48 N13G20    30.12S WCI  30
HARRISBURG*    CLOUDY    38  29  69 N9        30.13F WCI  32
ROBINSON*      CLOUDY    35  24  63 N13       30.12S WCI  27
CARMI*         CLOUDY    40  22  49 NW20      30.10F
$$

ABBREVIATIONS USED IN REMARKS
   TC - TEMPERATURE IN CELSIUS
  WCI - WIND CHILL INDEX
   HX - HEAT INDEX
  VSB - VISIBILITY
$$



USA.gov is the U.S. government's official web portal to all federal, state and local government web resources and services.